Regional Weather Roundup
Issued by NWS

Home | Current Version | Previous Version | Text Only | Print | Product List | Glossary On
Versions: 1 2 3 4 5 6 7 8 9 10 11 12 13 14 15 16 17 18 19 20 21 22 23 24 25 26 27 28 29 30 31 32 33 34 35 36 37 38 39 40 41 42 43 44 45 46 47 48 49 50
000
ASUS43 KMPX 290201
RWRMN
WEATHER ROUNDUP FOR MINNESOTA
NATIONAL WEATHER SERVICE TWIN CITIES/CHANHASSEN MN
800 PM CST FRI NOV 28 2014


NOTE: "FAIR" INDICATES FEW OR NO CLOUDS BELOW 12,000 FEET WITH NO
SIGNIFICANT WEATHER AND/OR OBSTRUCTIONS TO VISIBILITY. N/A MEANS
CURRENT SKY AND/OR WEATHER CONDITIONS ARE NOT AVAILABLE.

MNZ060>063-068>070-290300-
   Twin Cities Metro

CITY           SKY/WX    TMP DP  RH WIND       PRES   REMARKS
TWIN CITIES    MOCLDY    23  17  78 SE9       29.81F WCI  13
ST PAUL        MOCLDY    23  17  78 SE7       29.84F WCI  15
CRYSTAL        MOCLDY    24  17  74 E7        29.80F WCI  16
LAKEVILLE      CLOUDY    19  18  93 E5        29.81F WCI  13
EDEN PRAIRIE   CLOUDY    23  18  81 E8        29.79F WCI  14
SOUTH ST PAUL  MOCLDY    24  18  77 CALM      29.83F
LAKE ELMO      MOCLDY    23  19  86 CALM      29.83F
$$
MNZ001>005-007-008-013>017-022>024-027-028-290300-
   Northwest Minnesota

CITY           SKY/WX    TMP DP  RH WIND       PRES   REMARKS
BEMIDJI        CLOUDY    15  10  81 SE14      29.71S WCI   0
HALLOCK        CLOUDY    18  10  73 SE12      29.67F WCI   5
ROSEAU         LGT SNOW  18  10  73 SE8       29.70F WCI   7
WARROAD        LGT SNOW  16  12  86 SE7       29.71F WCI   6
THIEF RVR FALL CLOUDY    16  10  79 SE14      29.68F WCI   1
CROOKSTON      PTCLDY    18  12  79 SE10      29.69F WCI   6
FOSSTON        MOCLDY    14   9  79 SE7       29.69F WCI   4
DETROIT LAKES  PTCLDY    18  14  86 SE15      29.68F WCI   3
MOORHEAD       FAIR      18  16  93 SE8       29.70F WCI   7
PARK RAPIDS    CLOUDY    15  11  83 SE12      29.71F WCI   2
MAHNOMEN       FAIR      17  11  78 SE7       29.70F WCI   7
$$
MNZ006-009>011-018-025>026-290300-
   North Central Minnesota

CITY           SKY/WX    TMP DP  RH WIND       PRES   REMARKS
BAUDETTE       LGT SNOW  15  11  83 SE7       29.72F FOG     WCI   5
FLAG ISLAND    LGT SNOW  12  10  92 E9        29.72F WCI   0
INTL FALLS     CLOUDY    16  10  77 SE9       29.74F WCI   4
WASKISH        CLOUDY    16  10  79 SE9       29.73F WCI   4
BIG FORK       LGT SNOW  18  12  79 SE9       29.74F WCI   6
LONGVILLE      CLOUDY    16  10  79 SE9G16    29.73F WCI   4
GRAND RAPIDS   CLOUDY    14   9  79 S10       29.76R WCI   1
CRANE LAKE     CLOUDY    18  14  86 CALM      29.78F
ORR            CLOUDY    18  12  79 SE8       29.71F WCI   7
COOK           CLOUDY    18  14  86 CALM      29.77S
WALKER         CLOUDY    15   9  77 SE7       29.71F WCI   5
$$
MNZ012-019>021-037-290300-
   Northeast Minnesota

CITY           SKY/WX    TMP DP  RH WIND       PRES   REMARKS
DULUTH         LGT SNOW  16  11  80 S9        29.79F WCI   4
ELY            CLOUDY    18  16  93 SE5       29.76F WCI  11
HIBBING        FLURRIES  16  11  80 SE8       29.77F WCI   5
EVELETH        MIX PCPN  18  14  86 SE8       29.78F WCI   7
DULUTH HARBOR  FLURRIES  19  14  79 CALM      29.87F
TWO HARBORS    CLOUDY    21  16  79 SE5       29.82F WCI  15
SILVER BAY     MOCLDY    21  18  86 SE5       29.82F WCI  15
GRAND MARAIS     N/A     26  17  68 E12       29.88F WCI  16
G MARAIS ARPRT CLOUDY    18  10  73 E8G16     29.80F WCI   7
$$
MNZ029>031-032-039>041-046>048-054>057-064-290300-
   West Central Minnesota

CITY           SKY/WX    TMP DP  RH WIND       PRES   REMARKS
FERGUS FALLS   MOCLDY    18  10  73 SE10      29.75F WCI   6
WHEATON        CLOUDY    16  12  86 SE13      29.72F WCI   2
MORRIS         PTCLDY    18  14  86 SE12      29.71F WCI   5
ALEXANDRIA     CLOUDY    17  13  84 SE12      29.71F WCI   4
ELBOW LAKE     CLOUDY    18  13  82 SE12G22   29.72S WCI   5
WADENA         MOCLDY    14  10  85 SE12      29.71F WCI   0
GLENWOOD       PTCLDY    18  14  86 SE12      29.71F WCI   5
APPLETON       MOCLDY    19  16  86 SE9       29.73F WCI   9
BENSON         MOCLDY    19  16  86 SE7       29.74S WCI  10
ORTONVILLE     CLOUDY    18  12  79 SE9       29.71F WCI   6
MADISON        MOCLDY    21  19  93 SE3       29.73S
WILLMAR        CLOUDY    21  16  79 E14G20    29.74F WCI   8
$$
MNZ033>034-036-042>043-049>051-058-059-290300-
   Central Minnesota

CITY           SKY/WX    TMP DP  RH WIND       PRES   REMARKS
ST CLOUD       CLOUDY    20  14  77 SE6       29.78F WCI  12
SAUK CENTRE    CLOUDY    16  13  87 SE10      29.72F WCI   4
PAYNESVILLE    CLOUDY    17  14  88 NE8       29.75F WCI   6
AITKIN         CLOUDY    19  12  73 SE8       29.77S WCI   9
PINE RIVER     CLOUDY    16  10  79 SE13      29.77F WCI   2
BRAINERD       CLOUDY    16  12  84 SE7       29.77F WCI   6
STAPLES        PTCLDY    16  10  79 SE3       29.75F
LONG PRAIRIE   CLOUDY    16  12  86 E7        29.74F WCI   6
LITTLE FALLS   MOCLDY    19  14  79 SE9       29.77F WCI   9
LITCHFIELD     CLOUDY    21  19  93 E8        29.77F WCI  12
BUFFALO        CLOUDY    22  17  81 E5        29.80F WCI  15
MAPLE LAKE     CLOUDY    22  18  85 E7        29.79F WCI  14
$$
MNZ037-044-045-052-053-290300-
   East Central Minnesota

CITY           SKY/WX    TMP DP  RH WIND       PRES   REMARKS
PRINCETON      CLOUDY    19  16  86 E6        29.79F WCI  11
MORA             N/A    N/A N/A N/A MISG        N/A
CAMBRIDGE      MOCLDY    21  12  68 E5        29.80F WCI  15
RUSH CITY      CLOUDY    19  14  82 CALM      29.83S
MOOSE LAKE     CLOUDY    19  12  73 SE6       29.79F WCI  11
HINCKLEY       CLOUDY    19  14  79 CALM      29.81F
CLOQUET        FLURRIES  16  12  86 E3        29.80F
MCGREGOR       CLOUDY    18  14  86 SE8       29.80S WCI   7
$$
MNZ071>073-080-081-089-090-097-098-290300-
   Southwest Minnesota

CITY           SKY/WX    TMP DP  RH WIND       PRES   REMARKS
MONTEVIDEO     CLOUDY    19  18  93 S9        29.73F WCI   9
GRANITE FALLS  CLOUDY    21  18  88 E6        29.73F WCI  13
CANBY          CLOUDY    20  19  94 SE6       29.72F WCI  13
MARSHALL       MOCLDY    18  14  86 SE6       29.70F WCI   9
REDWOOD FALLS  PTCLDY    21  17  84 E9        29.72F WCI  11
OLIVIA         MOCLDY    21  19  93 E9G17     29.72F WCI  11
PIPESTONE      CLEAR     25  23  93 SE8       29.64F WCI  16
WINDOM         MOCLDY    19  18  93 E6        29.70F WCI  11
WORTHINGTON    PTCLDY    19  18  93 E5        29.68S WCI  13
JACKSON        PTCLDY    21  19  93 E7        29.69F WCI  13
TRACY          PTCLDY    19  18  94 SE7       29.69F WCI  10
SLAYTON        PTCLDY    21  20  97 E5        29.68F FOG     WCI  14
$$
MNZ065>067-074>077-082>085-091>093-290300-
   South Central Minnesota

CITY           SKY/WX    TMP DP  RH WIND       PRES   REMARKS
MANKATO        MOCLDY    21  16  79 SE9       29.76F WCI  11
NEW ULM        PTCLDY    21  19  93 E10       29.74F WCI  10
ST JAMES       PTCLDY    19  18  93 E8        29.74F WCI   9
FAIRMONT       PTCLDY    19  16  86 SE7       29.71F WCI  10
GLENCOE        MOCLDY    22  20  91 E7        29.76F WCI  14
FARIBAULT      CLOUDY    25  19  80 E3        29.79F
OWATONNA       MOCLDY    25  19  80 SE6       29.77F WCI  18
WASECA         CLOUDY    21  18  86 E9        29.78F WCI  11
ALBERT LEA     MOCLDY    23  21  93 SE8       29.74F WCI  14
$$
MNZ078>079-086>088-094>096-290300-
   Southeast Minnesota

CITY           SKY/WX    TMP DP  RH WIND       PRES   REMARKS
ROCHESTER      MOCLDY    23  19  85 SE16      29.77F WCI  10
RED WING       MOCLDY    25  18  74 E6        29.83R WCI  18
STANTON        MOCLDY    25  19  78 SE3       29.80S
DODGE CENTER   MOCLDY    23  21  93 SE10      29.76F WCI  12
WINONA         CLOUDY    27  23  86 SE5       29.85F WCI  21
AUSTIN         MOCLDY    21  19  93 SE8       29.76F WCI  12
PRESTON        MOCLDY    23  19  86 SE10      29.80F WCI  12
$$
ABBREVIATIONS USED IN REMARKS
   TC - TEMPERATURES IN CELSIUS
  WCI - WIND CHILL INDEX
   HX - HEAT INDEX
  VSB - VISIBILITY
$$



USA.gov is the U.S. government's official web portal to all federal, state and local government web resources and services.